This is the latest recevied weather packets stored in our database for station/object YF9UAG-15. If no packets are shown the sender has not sent any weather packets the latest 10 day(s).
| Time | Temp. | Humidity | Pressure | Rain* | Wind** | Luminosity | Snow |
|---|---|---|---|---|---|---|---|
| 1778033514 | 33.89° C | 72% | 1006 hPa | - | - | - | - |
| 1778033393 | 33.89° C | 74% | 1006 hPa | - | - | - | - |
| 1778033272 | 33.89° C | 74% | 1006.2 hPa | - | - | - | - |
| 1778033151 | 33.89° C | 74% | 1006.2 hPa | - | - | - | - |
| 1778033030 | 33.89° C | 73% | 1006.2 hPa | - | - | - | - |
| 1778032909 | 33.89° C | 73% | 1006.3 hPa | - | - | - | - |
| 1778032788 | 33.89° C | 75% | 1006.3 hPa | - | - | - | - |
| 1778032667 | 34.44° C | 75% | 1006.3 hPa | - | - | - | - |
| 1778032546 | 33.89° C | 75% | 1006.4 hPa | - | - | - | - |
| 1778032425 | 34.44° C | 75% | 1006.4 hPa | - | - | - | - |
| 1778032305 | 34.44° C | 76% | 1006.4 hPa | - | - | - | - |
| 1778032184 | 33.89° C | 74% | 1006.4 hPa | - | - | - | - |
| 1778032063 | 33.89° C | 75% | 1006.5 hPa | - | - | - | - |
| 1778031942 | 33.89° C | 77% | 1006.5 hPa | - | - | - | - |
| 1778031821 | 33.89° C | 78% | 1006.6 hPa | - | - | - | - |
| 1778031700 | 33.89° C | 78% | 1006.8 hPa | - | - | - | - |
| 1778031579 | 33.89° C | 77% | 1006.6 hPa | - | - | - | - |
| 1778031458 | 33.89° C | 77% | 1006.6 hPa | - | - | - | - |
| 1778031337 | 33.89° C | 80% | 1006.7 hPa | - | - | - | - |
| 1778031216 | 33.33° C | 78% | 1006.7 hPa | - | - | - | - |
| 1778031095 | 33.89° C | 82% | 1006.8 hPa | - | - | - | - |
| 1778030974 | 33.33° C | 79% | 1006.8 hPa | - | - | - | - |
| 1778030853 | 33.33° C | 79% | 1006.8 hPa | - | - | - | - |
| 1778030732 | 33.33° C | 80% | 1007.1 hPa | - | - | - | - |
| 1778030611 | 33.33° C | 80% | 1007 hPa | - | - | - | - |
* Rain since midnight (hover to see other rain measurements)
** Current wind speed in m/s (hover to see current wind gust speed)